Preview of NWS' New Version of Forecast
This preview is not operational and should not be used for support decisions.

Regional Weather Roundup (RWR)

Issued by National Weather Service (NWS)

                            
000
ASUS43 KDTX 170001
RWRMI 
MICHIGAN HOURLY REGIONAL WEATHER ROUNDUP
NATIONAL WEATHER SERVICE DETROIT/PONTIAC MI
800 PM EDT SUN JUN 16 2019

NOTE: "FAIR" INDICATES FEW OR NO CLOUDS BELOW 12,000 FEET WITH NO
SIGNIFICANT WEATHER AND/OR OBSTRUCTION TO VISIBILITY.

MIZ047>049-052>055-059>063-066>070-074>076-081>083-170100-
SOUTHEAST LOWER MICHIGAN
  
CITY           SKY/WX    TMP DP  RH WIND       PRES   REMARKS
ADRIAN         CLOUDY    63  60  90 E6        29.90S                  
6HR MIN TEMP:  61; 6HR MAX TEMP:  64;                                

ANN ARBOR      FOG       61  60  97 E6        29.91R VSB 1            
BAD AXE        CLOUDY    58  49  71 CALM      29.94R                  
6HR MIN TEMP:  58; 6HR MAX TEMP:  64;                                

CARO           CLOUDY    62  47  59 NE5       29.93S                  
DETROIT CITY   CLOUDY    59  57  93 NE6       29.92R FOG              
6HR MIN TEMP:  59; 6HR MAX TEMP:  62; 6HR PCP: TRACE;                

DETROIT        DRIZZLE   61  58  90 NE7       29.91S FOG              
6HR MIN TEMP:  60; 6HR MAX TEMP:  64; 6HR PCP:  0.04;                

FLINT          CLOUDY    63  54  72 E6        29.92S                  
6HR MIN TEMP:  62; 6HR MAX TEMP:  64; 6HR PCP: TRACE;                

GROSSE ILE     CLOUDY    60  59  96 NE6       29.90S FOG              
6HR MIN TEMP:  60; 6HR MAX TEMP:  63;                                

HILLSDALE      CLOUDY    62  60  93 E7        29.89S FOG              
6HR MIN TEMP:  61; 6HR MAX TEMP:  64;                                

HOWELL         CLOUDY    60  58  91 NE3       29.91S FOG              
6HR MIN TEMP:  58; 6HR MAX TEMP:  61;                                


CITY           SKY/WX    TMP DP  RH WIND       PRES   REMARKS
JACKSON        CLOUDY    61  61 100 NE5       29.90S FOG              
6HR MIN TEMP:  60; 6HR MAX TEMP:  62;                                

LAMBERTVILLE   CLOUDY    61  60  99 E5        29.90S FOG              
6HR MIN TEMP:  61; 6HR MAX TEMP:  64;                                

LANSING        CLOUDY    60  53  77 NE7       29.92R                  
6HR MIN TEMP:  59; 6HR MAX TEMP:  62;                                

LAPEER         CLOUDY    63  53  70 NE3       29.93R                  
6HR MIN TEMP:  61; 6HR MAX TEMP:  64;                                

MASON          CLOUDY    61  59  94 E3        29.92R                  
6HR MIN TEMP:  57; 6HR MAX TEMP:  61;                                

MONROE         CLOUDY    62  61  97 E5        29.90S FOG              
6HR MIN TEMP:  62; 6HR MAX TEMP:  65;                                

PONTIAC        CLOUDY    60  57  89 E7        29.90S                  
6HR MIN TEMP:  58; 6HR MAX TEMP:  62; 6HR PCP: TRACE;                

PORT HOPE        N/A     54  49  83 NE9       29.93S                  
6HR MIN TEMP:  53; 6HR MAX TEMP:  55;                                

PORT HURON     CLOUDY    59  48  67 N5        29.94S                  
TRI CITIES     CLOUDY    60  53  77 NE9       29.94R                  
6HR MIN TEMP:  60; 6HR MAX TEMP:  62; 6HR PCP: TRACE;                

MIDLAND        NOT AVBL                                               
SAGINAW HB     CLOUDY    63  54  72 N9        29.93S                  
$$
MIZ043>046-050>051-056>058-064>065-071>073-077>080-170100-
SOUTHWEST LOWER MICHIGAN
  
CITY           SKY/WX    TMP DP  RH WIND       PRES   REMARKS
BATTLE CREEK   CLOUDY    61  59  93 NE8       29.90S                  
6HR MIN TEMP:  59; 6HR MAX TEMP:  62; 6HR PCP:  0.01;                

BENTON HARBOR  CLOUDY    59  56  89 NW5       29.87S                  
6HR MIN TEMP:  59; 6HR MAX TEMP:  69;                                

BIG RAPIDS     CLOUDY    59  46  60 E6        29.95R                  
6HR MIN TEMP:  58; 6HR MAX TEMP:  60;                                

FREMONT        CLOUDY    60  47  64 E10       29.93R                  
6HR MIN TEMP:  60; 6HR MAX TEMP:  62;                                

HOLLAND        CLOUDY    61  56  83 E5        29.91R                  
6HR MIN TEMP:  58; 6HR MAX TEMP:  61; 6HR PCP:  0.03;                

GRAND RAPIDS   CLOUDY    62  53  72 E10       29.91S                  
6HR MIN TEMP:  57; 6HR MAX TEMP:  62; 6HR PCP: TRACE;                

IONIA          CLOUDY    61  52  71 NE10      29.91S                  
6HR MIN TEMP:  59; 6HR MAX TEMP:  62;                                

KALAMAZOO      CLOUDY    62  58  86 NE8       29.89S                  
6HR MIN TEMP:  61; 6HR MAX TEMP:  67;                                

LUDINGTON      CLOUDY    58  55  88 CALM      29.94R                  
6HR MIN TEMP:  57; 6HR MAX TEMP:  59;                                

MARSHALL       CLOUDY    61  61 100 NE3       29.90S FOG              
6HR MIN TEMP:  59; 6HR MAX TEMP:  63;                                

MOUNT PLEASANT CLOUDY    60  47  62 NE6       29.95R                  
6HR MIN TEMP:  60; 6HR MAX TEMP:  64;                                

MUSKEGON       CLOUDY    62  48  60 NE10      29.92R                  
6HR MIN TEMP:  61; 6HR MAX TEMP:  64; 6HR PCP: TRACE;                

SOUTH HAVEN    CLOUDY    62  59  91 NE7       29.88F                  
$$
MIZ016>042-170100-
NORTHERN LOWER MICHIGAN
  
CITY           SKY/WX    TMP DP  RH WIND       PRES   REMARKS
ALPENA         FAIR      61  48  62 S6        29.96S                  
6HR MIN TEMP:  55; 6HR MAX TEMP:  63; 6HR PCP:  0.01;                

BEAVER ISLAND  FAIR      65  46  50 SW5       29.95R                  
BELLAIRE       FAIR      67  46  46 CALM      29.95R                  
CADILLAC       CLOUDY    59  57  94 E6        29.95R                  
CHARLEVOIX     FAIR      63  47  56 NW3       29.98R                  
6HR MIN TEMP:  55; 6HR MAX TEMP:  64;                                

FRANKFORT      FAIR      66  50  55 CALM      29.95R                  
GAYLORD        FAIR      63  47  55 NE5       29.95S                  
6HR MIN TEMP:  59; 6HR MAX TEMP:  64;                                

HOUGHTON LAKE  LGT RAIN  58  53  84 E3        29.96S                  
6HR MIN TEMP:  58; 6HR MAX TEMP:  64; 6HR PCP: TRACE;                

MANISTEE       CLOUDY    58  54  86 E3        29.95S                  
OSCODA         PTSUNNY   55  48  76 N3        29.95F                  
6HR MIN TEMP:  54; 6HR MAX TEMP:  60;                                

PELLSTON       FAIR      66  46  48 SE8       29.95S                  
6HR MIN TEMP:  64; 6HR MAX TEMP:  68;                                

ROGERS CITY    FAIR      63  47  56 CALM      29.96S                  
TRAVERSE CITY  PTSUNNY   63  52  67 W3        29.93S                  
6HR MIN TEMP:  59; 6HR MAX TEMP:  66; 6HR PCP:  0.03;                

$$
MIZ007>008-015-170100-
EASTERN UPPER MICHIGAN
  
CITY           SKY/WX    TMP DP  RH WIND       PRES   REMARKS
KINROSS        FAIR      62  46  55 N9        29.95R                  
6HR MIN TEMP:  61; 6HR MAX TEMP:  68;                                

MACKINAC ISLAN FAIR      63  46  54 S5        29.94S                  
6HR MIN TEMP:  57; 6HR MAX TEMP:  63;                                

NEWBERRY       FAIR      63  42  47 N8        29.95R                  
6HR MIN TEMP:  63; 6HR MAX TEMP:  70;                                

S. S. MARIE    FAIR      64  47  53 W9        29.94R                  
6HR MIN TEMP:  64; 6HR MAX TEMP:  70;                                

MUNISING         N/A     50  44  80 NE10      29.98S                  
6HR MIN TEMP:  49; 6HR MAX TEMP:  54;                                

$$
MIZ004>006-011>014-085-170100-
CENTRAL UPPER MICHIGAN
  
CITY           SKY/WX    TMP DP  RH WIND       PRES   REMARKS
MANISTIQUE     FAIR      60  46  59 SW3       29.94S                  
6HR MIN TEMP:  60; 6HR MAX TEMP:  65;                                

ESCANABA       FAIR      60  47  61 S7        29.96R                  
6HR MIN TEMP:  59; 6HR MAX TEMP:  63;                                

MENOMINEE      FAIR      61  49  64 SE6       29.97S                  
6HR MIN TEMP:  56; 6HR MAX TEMP:  63;                                

SAWYER-GWINN   SUNNY     57  43  58 NE9       29.97R                  
$$
MIZ001>003-009>011-084-170100-
WESTERN UPPER MICHIGAN
  
CITY           SKY/WX    TMP DP  RH WIND       PRES   REMARKS
IRON MOUNTAIN  FAIR      67  44  43 SE8       29.93R                  
6HR MIN TEMP:  67; 6HR MAX TEMP:  72;                                

HOUGHTON       FAIR      57  43  59 E7        29.98S                  
6HR MIN TEMP:  56; 6HR MAX TEMP:  63;                                

COPPER HARBOR    N/A     51  46  83 E3        29.98S                  
6HR MIN TEMP:  48; 6HR MAX TEMP:  54;                                

IRONWOOD       FAIR      63  49  60 N7        29.96R                  
6HR MIN TEMP:  60; 6HR MAX TEMP:  67;                                

$$

ABBREVIATIONS USED IN REMARKS
   TC - TEMPERATURE IN CELSIUS
  WCI - WIND CHILL INDEX
   HX - HEAT INDEX
  VSB - VISIBILITY